Time,TemperatureF,DewpointF,PressureIn,WindDirection,WindDirectionDegrees,WindSpeedMPH,WindSpeedGustMPH,Humidity,HourlyPrecipIn,Conditions,Clouds,dailyrainin,SoftwareType,DateUTC
2013-09-26 00:11:00,52.0,49.0,30.07,East,82,2.0,5.0,88,0.00,,,0.27,,2013-09-26 07:11:00,
2013-09-26 00:22:00,51.0,48.0,30.07,East,93,1.0,4.0,88,0.00,,,0.27,,2013-09-26 07:22:00,
2013-09-26 00:42:00,51.0,48.0,30.07,East,93,0.0,3.0,88,0.00,,,0.27,,2013-09-26 07:42:00,
2013-09-26 00:53:00,50.0,47.0,30.07,ENE,72,3.0,6.0,89,0.00,,,0.27,,2013-09-26 07:53:00,
2013-09-26 01:11:00,50.0,47.0,30.07,ESE,123,0.0,4.0,89,0.00,,,0.27,,2013-09-26 08:11:00,
2013-09-26 01:22:00,50.0,47.0,30.07,East,94,2.0,5.0,89,0.00,,,0.27,,2013-09-26 08:22:00,
2013-09-26 01:42:00,50.0,47.0,30.07,ESE,110,0.0,2.0,90,0.00,,,0.24,,2013-09-26 08:42:00,
2013-09-26 01:52:00,50.0,47.0,30.07,SE,136,0.0,1.0,90,0.00,,,0.24,,2013-09-26 08:52:00,
2013-09-26 02:11:00,50.0,47.0,30.07,ESE,115,1.0,4.0,90,0.00,,,0.24,,2013-09-26 09:11:00,
2013-09-26 02:22:00,49.0,46.0,30.07,ESE,104,0.0,7.0,90,0.00,,,0.24,,2013-09-26 09:22:00,
2013-09-26 02:43:00,50.0,47.0,30.08,ENE,61,1.0,4.0,91,0.00,,,0.23,,2013-09-26 09:43:00,
2013-09-26 02:53:00,50.0,47.0,30.08,ENE,76,0.0,4.0,91,0.00,,,0.23,,2013-09-26 09:53:00,
2013-09-26 03:12:00,49.0,46.0,30.08,ENE,76,0.0,0.0,91,0.00,,,0.23,,2013-09-26 10:12:00,
2013-09-26 03:23:00,49.0,47.0,30.08,ENE,76,0.0,0.0,92,0.00,,,0.23,,2013-09-26 10:23:00,
2013-09-26 03:42:00,49.0,47.0,30.08,East,98,2.0,4.0,92,0.00,,,0.21,,2013-09-26 10:42:00,
2013-09-26 03:53:00,49.0,47.0,30.08,ENE,77,0.0,2.0,92,0.00,,,0.21,,2013-09-26 10:53:00,
2013-09-26 04:12:00,48.0,46.0,30.08,ENE,77,0.0,0.0,92,0.00,,,0.21,,2013-09-26 11:12:00,
2013-09-26 04:22:00,48.0,46.0,30.07,ENE,77,1.0,3.0,93,0.00,,,0.21,,2013-09-26 11:22:00,
2013-09-26 04:42:00,48.0,46.0,30.08,ENE,77,1.0,3.0,93,0.00,,,0.13,,2013-09-26 11:42:00,
2013-09-26 04:52:00,49.0,47.0,30.08,East,82,0.0,5.0,93,0.00,,,0.13,,2013-09-26 11:52:00,
2013-09-26 05:11:00,48.0,46.0,30.08,ESE,109,0.0,0.0,93,0.00,,,0.13,,2013-09-26 12:11:00,
2013-09-26 05:21:00,48.0,46.0,30.08,ESE,109,0.0,0.0,94,0.00,,,0.13,,2013-09-26 12:21:00,
2013-09-26 05:42:00,48.0,46.0,30.08,ESE,109,0.0,0.0,93,0.00,,,0.13,,2013-09-26 12:42:00,
2013-09-26 05:52:00,48.0,46.0,30.08,ESE,109,1.0,3.0,94,0.00,,,0.13,,2013-09-26 12:52:00,
2013-09-26 06:11:00,48.0,46.0,30.08,ESE,108,0.0,3.0,94,0.00,,,0.13,,2013-09-26 13:11:00,
2013-09-26 06:21:00,48.0,46.0,30.08,East,92,2.0,7.0,94,0.00,,,0.09,,2013-09-26 13:21:00,
2013-09-26 06:42:00,48.0,46.0,30.08,East,96,0.0,4.0,93,0.00,,,0.09,,2013-09-26 13:42:00,
2013-09-26 06:52:00,48.0,46.0,30.09,ESE,105,3.0,5.0,94,0.00,,,0.09,,2013-09-26 13:52:00,
2013-09-26 07:11:00,47.0,45.0,30.09,SE,135,1.0,3.0,94,0.00,,,0.09,,2013-09-26 14:11:00,
2013-09-26 07:22:00,47.0,45.0,30.09,ESE,104,1.0,6.0,94,0.00,,,0.08,,2013-09-26 14:22:00,
2013-09-26 07:41:00,47.0,45.0,30.09,East,84,2.0,5.0,94,0.00,,,0.08,,2013-09-26 14:41:00,
2013-09-26 07:52:00,47.0,45.0,30.09,ESE,114,1.0,4.0,94,0.00,,,0.08,,2013-09-26 14:52:00,
2013-09-26 08:11:00,47.0,45.0,30.10,ESE,107,0.0,4.0,94,0.00,,,0.08,,2013-09-26 15:11:00,
2013-09-26 08:22:00,47.0,45.0,30.10,ESE,107,0.0,3.0,94,0.00,,,0.01,,2013-09-26 15:22:00,
2013-09-26 08:44:00,48.0,46.0,30.11,SSE,152,0.0,2.0,94,0.00,,,0.01,,2013-09-26 15:44:00,
2013-09-26 08:54:00,47.0,45.0,30.11,SSE,152,0.0,2.0,94,0.00,,,0.01,,2013-09-26 15:54:00,
2013-09-26 09:12:00,49.0,48.0,30.11,SSE,152,0.0,2.0,95,0.00,,,0.01,,2013-09-26 16:12:00,
2013-09-26 09:24:00,50.0,49.0,30.11,SSE,155,1.0,5.0,95,0.00,,,0.00,,2013-09-26 16:24:00,
2013-09-26 09:43:00,51.0,50.0,30.12,SSW,202,2.0,4.0,95,0.00,,,0.00,,2013-09-26 16:43:00,
2013-09-26 09:53:00,52.0,50.0,30.12,SSW,203,1.0,4.0,94,0.00,,,0.00,,2013-09-26 16:53:00,
2013-09-26 10:12:00,53.0,51.0,30.13,SSE,159,1.0,4.0,94,0.00,,,0.00,,2013-09-26 17:12:00,
2013-09-26 10:23:00,54.0,52.0,30.13,South,187,2.0,4.0,94,0.00,,,0.00,,2013-09-26 17:23:00,
2013-09-26 10:52:00,56.0,54.0,30.13,SSW,206,4.0,6.0,93,0.00,,,0.00,,2013-09-26 17:52:00,
2013-09-26 11:13:00,57.0,55.0,30.13,SSW,212,4.0,6.0,93,0.00,,,0.00,,2013-09-26 18:13:00,
2013-09-26 11:21:00,57.0,55.0,30.14,SW,221,4.0,6.0,92,0.00,,,0.00,,2013-09-26 18:21:00,
2013-09-26 11:42:00,58.0,56.0,30.14,SW,221,4.0,6.0,92,0.00,,,0.00,,2013-09-26 18:42:00,
2013-09-26 11:52:00,59.0,57.0,30.14,SW,234,4.0,6.0,92,0.00,,,0.00,,2013-09-26 18:52:00,
2013-09-26 12:12:00,60.0,57.0,30.14,WSW,244,5.0,7.0,90,0.00,,,0.00,,2013-09-26 19:12:00,
2013-09-26 12:22:00,61.0,58.0,30.14,SW,235,4.0,6.0,89,0.00,,,0.00,,2013-09-26 19:22:00,
2013-09-26 12:43:00,60.0,57.0,30.14,SSW,212,4.0,6.0,89,0.00,,,0.00,,2013-09-26 19:43:00,
2013-09-26 12:52:00,60.0,57.0,30.14,SW,219,4.0,6.0,89,0.00,,,0.00,,2013-09-26 19:52:00,
2013-09-26 13:12:00,60.0,56.0,30.14,SW,219,4.0,6.0,88,0.00,,,0.00,,2013-09-26 20:12:00,
2013-09-26 13:22:00,61.0,57.0,30.14,SW,223,5.0,7.0,88,0.00,,,0.00,,2013-09-26 20:22:00,
2013-09-26 13:42:00,61.0,57.0,30.14,SW,220,4.0,6.0,88,0.00,,,0.00,,2013-09-26 20:42:00,
2013-09-26 13:52:00,61.0,57.0,30.14,SW,216,3.0,5.0,88,0.00,,,0.00,,2013-09-26 20:52:00,
2013-09-26 14:11:00,62.0,58.0,30.14,SW,216,3.0,5.0,87,0.00,,,0.00,,2013-09-26 21:11:00,
2013-09-26 14:23:00,63.0,59.0,30.14,SW,226,3.0,5.0,87,0.00,,,0.00,,2013-09-26 21:23:00,
2013-09-26 14:44:00,63.0,59.0,30.14,WSW,239,4.0,5.0,86,0.00,,,0.00,,2013-09-26 21:44:00,
2013-09-26 14:54:00,64.0,60.0,30.15,WSW,252,3.0,4.0,86,0.00,,,0.00,,2013-09-26 21:54:00,
2013-09-26 15:13:00,64.0,59.0,30.14,WSW,256,0.0,4.0,85,0.00,,,0.00,,2013-09-26 22:13:00,
2013-09-26 15:24:00,63.0,58.0,30.14,WSW,256,2.0,3.0,84,0.00,,,0.00,,2013-09-26 22:24:00,
2013-09-26 15:42:00,62.0,57.0,30.14,West,275,3.0,5.0,84,0.00,,,0.00,,2013-09-26 22:42:00,
2013-09-26 15:54:00,62.0,57.0,30.14,WNW,285,3.0,5.0,83,0.00,,,0.00,,2013-09-26 22:54:00,
2013-09-26 16:12:00,61.0,56.0,30.14,NW,313,3.0,4.0,84,0.00,,,0.00,,2013-09-26 23:12:00,
2013-09-26 16:23:00,61.0,56.0,30.14,NW,318,4.0,5.0,83,0.00,,,0.00,,2013-09-26 23:23:00,
2013-09-26 16:42:00,61.0,56.0,30.14,NW,324,5.0,6.0,84,0.00,,,0.00,,2013-09-26 23:42:00,
2013-09-26 16:53:00,61.0,56.0,30.14,NW,323,4.0,6.0,85,0.00,,,0.00,,2013-09-26 23:53:00,
2013-09-26 17:22:00,60.0,55.0,30.15,NNW,328,4.0,6.0,85,0.00,,,0.00,,2013-09-27 00:22:00,
2013-09-26 17:43:00,60.0,55.0,30.15,NNW,329,4.0,5.0,85,0.00,,,0.00,,2013-09-27 00:43:00,
2013-09-26 17:52:00,60.0,55.0,30.15,NNW,336,3.0,5.0,85,0.00,,,0.00,,2013-09-27 00:52:00,
2013-09-26 18:11:00,60.0,55.0,30.15,NNW,348,3.0,4.0,85,0.00,,,0.00,,2013-09-27 01:11:00,
2013-09-26 18:23:00,60.0,55.0,30.15,NNW,345,3.0,4.0,85,0.00,,,0.00,,2013-09-27 01:23:00,
2013-09-26 18:42:00,59.0,54.0,30.15,NNW,343,2.0,4.0,84,0.00,,,0.00,,2013-09-27 01:42:00,
2013-09-26 18:52:00,59.0,54.0,30.15,North,349,1.0,3.0,84,0.00,,,0.00,,2013-09-27 01:52:00,
2013-09-26 19:12:00,59.0,54.0,30.15,NNW,346,2.0,4.0,83,0.00,,,0.00,,2013-09-27 02:12:00,
2013-09-26 19:22:00,58.0,53.0,30.15,NNW,346,0.0,2.0,84,0.00,,,0.00,,2013-09-27 02:22:00,
2013-09-26 19:42:00,57.0,53.0,30.16,NNW,346,0.0,0.0,85,0.00,,,0.00,,2013-09-27 02:42:00,
2013-09-26 19:53:00,56.0,52.0,30.16,NNW,346,0.0,0.0,85,0.00,,,0.00,,2013-09-27 02:53:00,
2013-09-26 20:12:00,55.0,51.0,30.16,NNW,346,0.0,0.0,86,0.00,,,0.00,,2013-09-27 03:12:00,
2013-09-26 20:21:00,54.0,51.0,30.17,NNW,346,0.0,0.0,88,0.00,,,0.00,,2013-09-27 03:21:00,
2013-09-26 20:44:00,53.0,50.0,30.17,NNW,346,0.0,0.0,88,0.00,,,0.00,,2013-09-27 03:44:00,
2013-09-26 20:55:00,53.0,50.0,30.17,NNW,346,0.0,0.0,89,0.00,,,0.00,,2013-09-27 03:55:00,
2013-09-26 21:13:00,53.0,50.0,30.18,North,352,0.0,2.0,90,0.00,,,0.00,,2013-09-27 04:13:00,
2013-09-26 21:24:00,53.0,50.0,30.18,East,90,1.0,3.0,90,0.00,,,0.00,,2013-09-27 04:24:00,
2013-09-26 21:44:00,52.0,49.0,30.18,ESE,106,0.0,2.0,90,0.00,,,0.00,,2013-09-27 04:44:00,
2013-09-26 21:54:00,52.0,49.0,30.18,ESE,108,2.0,4.0,90,0.00,,,0.00,,2013-09-27 04:54:00,
2013-09-26 22:12:00,52.0,49.0,30.19,ESE,104,0.0,5.0,90,0.00,,,0.00,,2013-09-27 05:12:00,
2013-09-26 22:23:00,52.0,49.0,30.19,ESE,102,0.0,5.0,91,0.00,,,0.00,,2013-09-27 05:23:00,
2013-09-26 22:43:00,52.0,49.0,30.19,East,94,2.0,4.0,91,0.00,,,0.00,,2013-09-27 05:43:00,
2013-09-26 22:52:00,52.0,49.0,30.19,East,95,2.0,6.0,91,0.00,,,0.00,,2013-09-27 05:52:00,
2013-09-26 23:11:00,51.0,48.0,30.19,East,97,0.0,4.0,91,0.00,,,0.00,,2013-09-27 06:11:00,
2013-09-26 23:22:00,51.0,48.0,30.19,East,101,0.0,3.0,91,0.00,,,0.00,,2013-09-27 06:22:00,
2013-09-26 23:42:00,51.0,49.0,30.19,East,101,0.0,2.0,92,0.00,,,0.00,,2013-09-27 06:42:00,
2013-09-26 23:52:00,51.0,49.0,30.20,ESE,103,1.0,3.0,92,0.00,,,0.00,,2013-09-27 06:52:00,